Orangeburg, SC

7:18 PM EST on December 03, 2016 (GMT -0500)
Orangeburg Municipal

Weather History for KOGB - March, 2012

Change the Weather History Date:

Thursday, March 8, 2012

  Actual Average Record
Temperature  
Mean Temperature 64 °F 55 °F  
Max Temperature 77 °F 67 °F 85 °F (1974)
Min Temperature 50 °F 43 °F 20 °F (1960)
Degree Days  
Heating Degree Days 1 11  
Month to date heating degree days 56 93  
Since 1 July heating degree days 1642 2025  
Cooling Degree Days 0 0  
Month to date cooling degree days 12 0  
Year to date cooling degree days 24 3  
Growing Degree Days 14 (Base 50)    
Moisture  
Dew Point 52 °F    
Average Humidity 68    
Maximum Humidity 96    
Minimum Humidity 36    
Precipitation  
Precipitation 0.00 in 0.14 in 1.58 in (1998)
Month to date precipitation 2.62 1.05  
Year to date precipitation 5.80 8.62  
Sea Level Pressure  
Sea Level Pressure 30.31 in    
Wind  
Wind Speed 5 mph (SSE)    
Max Wind Speed 15 mph    
Max Gust Speed 21 mph    
Visibility 9 miles    
Events      
T = Trace of Precipitation, MM = Missing Value Source: NWS Daily Summary

Daily Weather History Graph

Daily Weather History Graph

Search for Another Location

Airport or City:

Trip Planner

Search our weather history database for the weather conditions in past years. The results will help you decide how hot, cold, wet, or windy it might be!

Date:

Astronomy

Mar. 08, 2012 Rise Set
Actual Time 6:42 AM EST 6:26 PM EST
Civil Twilight 6:17 AM EST 6:51 PM EST
Nautical Twilight 5:48 AM EST 7:19 PM EST
Astronomical Twilight 5:19 AM EST 7:48 PM EST
Moon 7:06 PM EST (3/8) 6:28 AM EST (3/8)
Length of Visible Light 12h 33m
Length of Day
11h 43m
Full, 100% of the Moon is Illuminated
Mar 8
Full
Mar 14
Last Quarter
Mar 22
New
Mar 30
First Quarter
Apr 6
Full

Hourly Weather History & Observations

Time (EST) Temp. Dew Point Humidity Pressure Visibility Wind Dir Wind Speed Gust Speed Precip Events Conditions
12:53 AM 55.0 °F 50.0 °F 83% 30.43 in 10.0 mi Calm Calm - N/A   Mostly Cloudy
1:53 AM 53.1 °F 50.0 °F 89% 30.42 in 10.0 mi Calm Calm - N/A   Clear
2:53 AM 52.0 °F 50.0 °F 93% 30.39 in 9.0 mi ENE 3.5 mph - N/A   Mostly Cloudy
3:53 AM 52.0 °F 50.0 °F 93% 30.38 in 8.0 mi NE 3.5 mph - N/A   Mostly Cloudy
4:53 AM 53.1 °F 50.0 °F 89% 30.39 in 8.0 mi Calm Calm - N/A   Overcast
5:53 AM 52.0 °F 50.0 °F 93% 30.40 in 6.0 mi ENE 3.5 mph - N/A   Overcast
6:53 AM 51.1 °F 50.0 °F 96% 30.40 in 2.5 mi East 3.5 mph - N/A   Partly Cloudy
7:01 AM 51.8 °F 50.0 °F 94% 30.40 in 5.0 mi East 3.5 mph - N/A   Partly Cloudy
7:53 AM 55.0 °F 53.1 °F 93% 30.40 in 5.0 mi Calm Calm - N/A   Overcast
8:53 AM 62.1 °F 55.0 °F 78% 30.38 in 10.0 mi SE 3.5 mph - N/A   Partly Cloudy
9:53 AM 69.1 °F 55.9 °F 63% 30.38 in 10.0 mi SSE 6.9 mph - N/A   Mostly Cloudy
10:00 AM 69.8 °F 55.4 °F 60% 30.38 in 10.0 mi SSE 8.1 mph - N/A   Mostly Cloudy
10:53 AM 73.0 °F 54.0 °F 51% 30.36 in 10.0 mi South 8.1 mph - N/A   Overcast
11:40 AM 73.4 °F 51.8 °F 47% 30.35 in 10.0 mi South 9.2 mph - N/A   Overcast
11:53 AM 73.9 °F 50.0 °F 43% 30.33 in 10.0 mi South 10.4 mph 17.3 mph N/A   Overcast
12:53 PM 75.0 °F 46.9 °F 37% 30.30 in 10.0 mi SSW 10.4 mph 19.6 mph N/A   Mostly Cloudy
1:53 PM 75.0 °F 48.0 °F 38% 30.27 in 10.0 mi SSW 10.4 mph - N/A   Mostly Cloudy
2:53 PM 77.0 °F 48.9 °F 37% 30.24 in 10.0 mi SW 11.5 mph 17.3 mph N/A   Overcast
3:53 PM 75.9 °F 48.9 °F 38% 30.22 in 10.0 mi SSW 8.1 mph - N/A   Mostly Cloudy
4:53 PM 75.9 °F 50.0 °F 40% 30.21 in 10.0 mi Variable 6.9 mph - N/A   Overcast
5:53 PM 72.0 °F 52.0 °F 49% 30.21 in 10.0 mi South 6.9 mph - N/A   Mostly Cloudy
6:53 PM 69.1 °F 53.1 °F 57% 30.21 in 10.0 mi South 5.8 mph - N/A   Overcast
7:53 PM 66.0 °F 54.0 °F 65% 30.20 in 10.0 mi South 5.8 mph - N/A   Overcast
8:53 PM 64.9 °F 55.0 °F 70% 30.20 in 10.0 mi South 3.5 mph - N/A   Partly Cloudy
9:53 PM 63.0 °F 55.9 °F 78% 30.19 in 10.0 mi South 5.8 mph - N/A   Clear
10:53 PM 63.0 °F 55.9 °F 78% 30.18 in 10.0 mi South 6.9 mph - N/A   Clear
11:53 PM 62.1 °F 55.9 °F 80% 30.16 in 10.0 mi South 4.6 mph - N/A   Clear